Terug naar catalogus

STARLINK-31662

ActiefCommunicatieVLEO
NORAD 59584·PAYLOAD·🇺🇸 United States

Gelanceerd Apr 23, 2024 vanaf Cape Canaveral Space Force Station

Loading…

Volgende Passages (komende 24 uur)

TLE

VersSource: CelesTrak SupGP

Epoch: Sep 15, 2026, 02:07 UTC

1 59584C 24076W   26258.08868056 -.00005206  00000+0 -18851-3 0  2582
2 59584  43.0042  19.4856 0001563 265.4513 231.5634 15.27587000    10

Volg STARLINK-31662 in realtime met AllMySat

Download on the App Store